DateTimeUTC,F1_A11,F1_S11,BsB_S11,BsG_S11,BsR_S11,BbsB_S11,BbsG_S11,BbsR_S11,BaB_A11,BaG_A11,BaR_A11,Tu_S11,T_S11,Uu_S11,U_S11,P_S11,T1_A11
2021-02-26T00:00:00Z,00000200,21000000,,,,,,,-000.18,0000.02,0000.11,16.5,24.3,,00.0,0640.2,30.9
2021-02-26T00:01:00Z,00000200,21000000,,,,,,,-000.04,-000.28,-000.04,16.5,24.3,,00.0,0640.2,31.0
2021-02-26T00:02:00Z,00000200,21000000,,,,,,,0000.11,0000.21,0000.36,16.6,24.3,,00.0,0640.2,31.0
2021-02-26T00:03:00Z,00000200,61000000,,,,,,,-000.03,0000.27,-000.43,16.6,24.3,,00.0,0640.2,31.0
2021-02-26T00:04:00Z,00000200,41000000,0000.30,-000.14,0000.22,-000.40,0000.21,-000.13,-000.03,-000.07,0000.15,17.1,24.3,,00.0,0641.0,31.0
2021-02-26T00:05:00Z,00000200,01000000,0000.33,0000.10,0000.03,-000.46,0000.28,-000.24,-000.06,-000.07,0000.08,17.2,24.3,,00.0,0641.1,31.0
2021-02-26T00:06:00Z,00000200,01000000,-000.25,0000.24,0000.15,-000.31,0000.18,0000.09,-000.09,-000.09,-000.11,17.3,24.3,,00.0,0641.1,31.0
2021-02-26T00:07:00Z,00000200,01000000,0000.16,0000.23,0000.07,-000.41,-000.01,-000.23,0000.14,0000.45,-000.09,17.3,24.3,,00.0,0641.1,31.0
2021-02-26T00:08:00Z,00000200,01000000,-000.36,0000.09,0000.15,-000.09,-000.12,-000.11,-000.03,-000.09,0000.01,17.3,24.3,,00.0,0641.1,31.0
2021-02-26T00:09:00Z,00000200,01000000,0000.36,0000.34,-000.07,-000.03,0000.11,0000.03,0000.29,-000.12,0000.16,17.2,24.3,,00.0,0641.1,31.0
2021-02-26T00:10:00Z,00000200,01000000,0000.01,0000.18,-000.16,0000.07,-000.01,-000.06,-000.38,-000.27,0000.13,17.2,24.3,,00.0,0641.1,31.0
2021-02-26T00:11:00Z,00000200,01000000,0000.28,0000.13,-000.04,-000.37,-000.00,0000.10,-000.17,0000.36,-000.21,17.1,24.2,,00.0,0641.1,31.0
2021-02-26T00:12:00Z,00000200,01000000,0000.01,0000.00,0000.12,0000.27,-000.09,-000.04,0000.28,-000.61,-000.05,17.1,24.2,,00.0,0641.1,31.0
2021-02-26T00:13:00Z,00000200,01000000,0000.19,-000.08,0000.02,0000.04,0000.11,0000.14,-000.03,0000.35,0000.04,17.0,24.2,,00.0,0641.1,31.0
2021-02-26T00:14:00Z,00000200,01000000,0000.96,0000.06,0000.07,-000.07,0000.27,-000.15,0000.17,0000.16,-000.10,17.0,24.1,,00.0,0641.1,31.0
2021-02-26T00:15:00Z,00000200,01000000,0000.00,0000.16,-000.17,0000.10,0000.12,-000.14,-000.15,-000.40,0000.18,17.1,24.2,,00.0,0641.1,31.0
2021-02-26T00:16:00Z,00000200,01000000,0000.82,0000.28,0000.05,-000.10,-000.03,0000.13,0000.28,0000.47,0000.32,17.1,24.2,,00.0,0641.1,31.0
2021-02-26T00:17:00Z,00000200,01000000,0000.30,0000.04,-000.02,-000.16,0000.00,-000.26,0000.05,-000.58,-000.32,17.2,24.2,,00.0,0641.1,31.0
2021-02-26T00:18:00Z,00000200,01000000,0000.09,-000.02,-000.13,-000.23,0000.22,0000.01,-000.40,0000.11,-000.17,17.3,24.3,,00.0,0641.1,31.0
2021-02-26T00:19:00Z,00000200,01000000,0000.89,0000.08,0000.16,-000.29,0000.04,0000.03,0000.13,0000.39,0000.20,17.4,24.3,,00.0,0641.1,31.0
2021-02-26T00:20:00Z,00000200,01000000,-000.41,-000.07,0000.28,-000.35,-000.17,0000.23,-000.19,-000.48,0000.11,17.4,24.3,,00.0,0641.1,31.0
2021-02-26T00:21:00Z,00000200,01000000,0000.30,-000.03,0000.10,0000.44,-000.08,0000.06,0000.05,0000.45,-000.18,17.4,24.3,,00.0,0641.1,31.0
2021-02-26T00:22:00Z,00000200,01000000,0000.37,0000.21,0000.00,-000.29,0000.16,-000.15,0000.06,-000.01,0000.13,17.3,24.3,,00.0,0641.1,31.0
2021-02-26T00:23:00Z,00000200,01000000,0000.13,0000.25,0000.23,0000.07,0000.15,0000.34,-000.21,-000.61,-000.13,17.3,24.3,,00.0,0641.1,31.0
2021-02-26T00:24:00Z,00000200,01000000,-000.38,-000.02,0000.12,-000.28,-000.06,-000.27,0000.07,0000.33,0000.07,17.2,24.3,,00.0,0641.1,31.0
2021-02-26T00:25:00Z,00000200,01000000,-000.14,0000.14,0000.28,-000.26,0000.03,0000.09,-000.16,-000.03,0000.21,17.2,24.3,,00.0,0641.2,31.0
2021-02-26T00:26:00Z,00000200,01000000,0000.19,-000.14,-000.01,-000.03,0000.03,0000.08,0000.10,-000.15,-000.61,17.1,24.2,,00.0,0641.2,31.0
2021-02-26T00:27:00Z,00000200,01000000,0000.15,0000.33,-000.15,0000.28,0000.02,-000.26,-000.31,0000.10,-000.10,17.1,24.2,,00.0,0641.2,31.0
2021-02-26T00:28:00Z,00000200,01000000,0000.61,0000.05,0000.20,-000.21,0000.12,0000.01,0000.04,0000.20,-000.11,17.0,24.2,,00.0,0641.1,31.0
2021-02-26T00:29:00Z,00000200,01000000,0000.51,0000.13,-000.05,-000.09,0000.14,-000.21,0000.38,0000.17,0000.39,17.0,24.2,,00.0,0641.1,31.0
2021-02-26T00:30:00Z,00000200,01000000,0000.29,0000.28,0000.00,0000.28,0000.16,0000.02,0000.14,-000.09,0000.17,17.0,24.1,,00.0,0641.1,31.0
2021-02-26T00:31:00Z,00000200,01000000,-000.29,-000.03,0000.41,-000.31,0000.17,0000.11,-000.01,0000.15,0000.08,16.9,24.1,,00.0,0641.1,30.9
2021-02-26T00:32:00Z,00000200,01000000,0000.40,-000.09,0000.01,-000.37,-000.03,0000.16,-000.10,0000.12,0000.17,16.9,24.1,,00.0,0641.1,30.9
2021-02-26T00:33:00Z,00000200,01000000,0000.00,0000.04,-000.09,0000.09,0000.39,0000.10,-000.15,-000.04,-000.11,16.9,24.1,,00.0,0641.0,30.9
2021-02-26T00:34:00Z,00000200,01000000,0000.01,0000.13,0000.20,-000.69,0000.14,-000.12,0000.32,-000.19,-000.15,16.8,24.0,,00.0,0641.0,30.9
2021-02-26T00:35:00Z,00000200,01000000,0000.31,-000.09,0000.27,-000.03,0000.03,0000.02,0000.12,-000.20,-000.14,16.8,24.0,,00.0,0641.0,30.9
2021-02-26T00:36:00Z,00000200,01000000,0000.33,0000.08,0000.07,-000.23,0000.11,-000.04,-000.15,0000.26,-000.08,16.7,24.0,,00.0,0641.0,30.9
2021-02-26T00:37:00Z,00000200,01000000,0000.18,0000.28,0000.04,0000.01,-000.09,0000.07,0000.06,0000.09,0000.31,16.7,24.0,,00.0,0640.9,30.9
2021-02-26T00:38:00Z,00000200,01000000,0000.07,0000.09,-000.04,0000.13,0000.09,-000.11,-000.11,-000.09,-000.33,16.7,24.0,,00.0,0640.9,30.9
2021-02-26T00:39:00Z,00000200,01000000,0000.21,-000.03,0000.33,-000.52,0000.17,0000.05,0000.25,-000.16,0000.10,16.6,23.9,,00.0,0640.9,30.9
2021-02-26T00:40:00Z,00000200,01000000,0000.26,0000.08,0000.28,-000.13,0000.13,0000.06,-000.02,0000.31,0000.30,16.6,23.9,,00.0,0640.9,30.9
2021-02-26T00:41:00Z,00000200,01000000,0000.44,0000.17,0000.21,-000.51,0000.14,-000.01,-000.07,-000.32,-000.07,16.6,23.9,,00.0,0640.9,30.9
2021-02-26T00:42:00Z,00000200,01000000,0000.05,0000.27,-000.23,-000.48,0000.04,-000.12,0000.12,0000.23,-000.09,16.5,23.9,,00.0,0640.9,30.9
2021-02-26T00:43:00Z,00000200,01000000,0000.25,0000.27,0000.17,0000.24,-000.06,-000.04,-000.01,0000.01,0000.01,16.5,23.8,,00.0,0640.9,30.9
2021-02-26T00:44:00Z,00000200,01000000,0000.10,0000.06,-000.06,0000.05,0000.16,-000.12,0000.16,-000.04,0000.45,16.5,23.8,,00.0,0640.8,30.9
2021-02-26T00:45:00Z,00000200,01000000,0000.58,0000.01,-000.09,-000.35,0000.09,-000.16,0000.04,0000.15,-000.45,16.6,23.8,,00.0,0640.8,30.9
2021-02-26T00:46:00Z,00000200,01000000,0000.45,0000.21,-000.03,0000.01,-000.01,-000.05,-000.25,-000.16,0000.18,16.7,23.8,,00.0,0640.8,31.0
2021-02-26T00:47:00Z,00000200,01000000,-000.20,0000.09,-000.14,-000.25,-000.21,-000.09,0000.16,0000.39,0000.13,16.8,23.9,,00.0,0640.8,31.0
2021-02-26T00:48:00Z,00000200,01000000,0000.38,-000.04,0000.10,-000.49,-000.01,-000.38,0000.16,-000.14,-000.15,16.9,23.9,,00.0,0640.8,31.0
2021-02-26T00:49:00Z,00000200,01000000,-000.07,-000.07,0000.27,-000.03,0000.04,-000.05,0000.20,0000.10,0000.11,16.9,24.0,,00.0,0640.8,31.0
2021-02-26T00:50:00Z,00000200,01000000,-000.21,0000.25,-000.12,-000.30,0000.23,-000.05,-000.34,-000.04,-000.06,17.0,24.0,,00.0,0640.8,31.0
2021-02-26T00:51:00Z,00000200,01010000,0000.33,0000.06,0000.12,-000.21,-000.05,-000.17,-000.07,0000.26,-000.07,17.1,24.1,,00.0,0640.8,31.0
2021-02-26T00:52:00Z,00000200,01000000,-000.10,0000.15,0000.10,-000.13,0000.03,-000.22,0000.43,-000.29,0000.25,17.1,24.1,,00.0,0640.8,31.0
2021-02-26T00:53:00Z,00000200,01000000,-000.21,0000.04,0000.10,-000.22,0000.04,-000.04,-000.20,0000.22,-000.25,17.1,24.1,,00.0,0640.8,31.0
2021-02-26T00:54:00Z,00000200,01000000,0000.40,0000.28,-000.09,-000.20,0000.20,0000.03,0000.10,0000.38,0000.46,17.1,24.1,,00.0,0640.8,31.0
2021-02-26T00:55:00Z,00000200,01000000,0000.41,-000.08,0000.19,0000.35,0000.13,-000.06,0000.09,-000.52,-000.38,17.1,24.0,,00.0,0640.8,31.0
2021-02-26T00:56:00Z,00000200,01000000,0000.16,0000.25,-000.08,0000.14,0000.24,-000.22,-000.33,-000.24,0000.25,17.0,24.0,,00.0,0640.7,31.0
2021-02-26T00:57:00Z,00000200,41000000,,,,,,,0000.22,0000.25,-000.21,17.0,24.0,,00.0,0640.7,31.0
2021-02-26T00:58:00Z,00000200,61000000,,,,,,,-000.07,-000.42,-000.15,16.6,24.2,,00.0,0639.8,31.0
2021-02-26T00:59:00Z,00000200,21000000,,,,,,,-000.31,0000.11,-000.13,16.6,24.3,,00.0,0639.8,31.0
